Location: Long Geng
(2.6167°N, 114.1333°E)
Time: 13:05:47
(UTC+00:00)

Cosmos 2263 Rocket - Pass Details

Date: 14 May 2021
Orbit: 822 x 849 km, 71.0° (Epoch: 16 June)

Event Time Altitude Azimuth Distance (km) Brightness Sun altitude
Rises 19:59:46 0° 4° (N) 3,391 5.7 -31.9°
Reaches altitude 10° 20:02:32 10° 16° (NNE) 2,461 5.0 -31.2°
Maximum altitude 20:07:20 29° 74° (ENE) 1,515 4.1 -30.1°
Drops below altitude 10° 20:12:10 10° 133° (SE) 2,471 4.9 -29.0°
Sets 20:14:55 0° 144° (SE) 3,407 5.5 -28.4°
